[[{"header":{"parameterUnit":"m.s-1","parameterCategory":1,"la1":30.2991,"la2":30.254,"lo1":-89.0895,"lo2":-89.0444,"dy":0.0017,"dx":0.0017,"nx":28,"ny":28,"refTime":"2025-04-24T09:00:00:Z","depth":0,"parameterNumber":2,"parameterNumberName":"U-component_of_WINDS"},"data":[0,0,0,0,0,0,0,0,0,0,0,0,0,0,0,0,0,0,0,0,0,0,0,0,0,0,0,0,0,0,0,0,0,0,0,0,0,0,0,0,0,0,0,0,0,0,0,0,0,0,0,0,0,0,0,0,0,0,-3.2175,-3.2175,0,-3.2219,-3.222,-3.222,-3.221,-3.221,-3.2209,-3.2208,-3.2252,-3.2254,-3.2256,0,0,0,0,0,0,0,0,0,0,0,0,0,-3.2081,-3.2083,-3.2175,-3.2175,-3.2176,-3.2219,-3.222,-3.222,-3.2211,-3.221,-3.2209,-3.2208,-3.2251,-3.2254,-3.2256,0,0,0,0,0,0,0,0,0,0,0,0,0,-3.2123,-3.2084,-3.2175,-3.2176,-3.2177,-3.2219,-3.222,-3.222,-3.2211,-3.2209,-3.2208,-3.2207,-3.2251,-3.2253,-3.2256,-3.2299,0,0,-3.2265,-3.2266,0,0,0,0,0,0,0,0,-3.2121,-3.2127,-3.2175,-3.2176,-3.2177,-3.2208,-3.2203,-3.2247,-3.2211,-3.2198,-3.2208,-3.2206,-3.2238,-3.2242,-3.2253,-3.2301,-3.2303,-3.2265,-3.2267,-3.2268,-3.2269,0,0,0,0,0,0,0,-3.2118,-3.2125,-3.2192,-3.2176,-3.2177,-3.2175,-3.2179,-3.2211,-3.2224,-3.2199,-3.2198,-3.2204,-3.2238,-3.225,-3.2254,-3.2304,-3.2265,-3.2268,-3.227,-3.2271,-3.2389,-3.2391,0,0,0,0,0,0,-3.2115,-3.2122,-3.2191,-3.2194,-3.2145,-3.2177,-3.2182,-3.2199,-3.2224,-3.2227,-3.2205,-3.2203,-3.2246,-3.2251,-3.2256,-3.2306,-3.2268,-3.2271,-3.2273,-3.2388,-3.239,-3.2391,0,0,0,0,0,0,-3.2113,-3.2121,-3.2189,-3.2158,-3.2166,-3.218,-3.2199,-3.2201,-3.2213,-3.2229,-3.2231,-3.2214,-3.2245,-3.2251,-3.2288,-3.2308,-3.2272,-3.2275,-3.2386,-3.2388,-3.239,-3.2409,0,0,0,0,0,0,-3.211,-3.212,-3.2136,-3.2158,-3.2168,-3.2221,-3.22,-3.2203,-3.2218,-3.2216,-3.2238,-3.2241,-3.2245,-3.2284,-3.2291,-3.2311,-3.2277,-3.2385,-3.2387,-3.239,-3.2407,-3.2411,-3.2416,0,0,0,0,0,-3.2107,-3.2139,-3.2137,-3.2145,-3.2189,-3.2222,-3.2228,-3.2232,-3.2219,-3.2236,-3.2246,-3.224,-3.2305,-3.2288,-3.2296,-3.2317,-3.2383,-3.2386,-3.239,-3.2405,-3.2411,-3.2416,0,0,0,0,0,0,-3.2118,-3.2142,-3.214,-3.2181,-3.22,-3.2221,-3.2241,-3.2238,-3.2261,-3.2258,-3.2262,-3.2267,-3.2305,-3.2315,-3.2295,-3.236,-3.2342,-3.2347,-3.2351,-3.2357,-3.2361,-3.2357,-3.228,0,0,0,0,0,-3.2126,-3.2151,-3.2171,-3.2205,-3.2215,-3.2227,-3.2241,-3.2244,-3.2263,-3.227,-3.2284,-3.2302,-3.2327,-3.2343,-3.2367,-3.241,-3.2414,-3.2428,-3.2433,-3.2436,-3.2439,-3.2462,-3.2468,-3.2401,-3.2401,-3.2401,0,0,-3.2141,-3.2158,-3.2173,-3.2208,-3.2223,-3.2249,-3.2233,-3.2261,-3.228,-3.2275,-3.231,-3.2321,-3.2342,-3.2382,-3.24,-3.2391,-3.246,-3.244,-3.2443,-3.2444,-3.2466,-3.2472,-3.2478,-3.2404,-3.2403,-3.2403,0,0,-3.2182,-3.2197,-3.2227,-3.2243,-3.2266,-3.2274,-3.2281,-3.2303,-3.231,-3.2346,-3.2342,-3.2366,-3.2409,-3.2424,-3.2437,-3.2486,-3.2481,-3.2494,-3.2516,-3.2538,-3.2544,-3.2548,-3.2564,-3.257,-3.2498,-3.2498,-3.2498,0,-3.2197,-3.2236,-3.2243,-3.2271,-3.2287,-3.2285,-3.2315,-3.233,-3.2359,-3.237,-3.236,-3.2414,-3.2429,-3.2472,-3.2484,-3.2496,-3.2503,-3.249,-3.2543,-3.2547,-3.2552,-3.2567,-3.2573,-3.25,-3.2499,-3.2499,-3.2499,0,-3.2254,-3.2281,-3.2303,-3.2332,-3.235,-3.2379,-3.239,-3.2408,-3.241,-3.2419,-3.2456,-3.2473,-3.25,-3.2512,-3.2513,-3.2555,-3.2549,-3.2542,-3.2523,-3.2559,-3.2573,-3.258,-3.2501,-3.2501,-3.25,-3.25,0,0,-3.2299,-3.2334,-3.2341,-3.2354,-3.2381,-3.2402,-3.2432,-3.2459,-3.2474,-3.2495,-3.2519,-3.2557,-3.2551,-3.2566,-3.257,-3.2589,-3.2626,-3.2579,-3.258,-3.2585,-3.2672,-3.2676,-3.2682,-3.2624,-3.2625,-3.2626,-3.267,0,-3.2341,-3.2393,-3.24,-3.2446,-3.2471,-3.2471,-3.2497,-3.2516,-3.2526,-3.2549,-3.256,-3.2586,-3.2576,-3.2585,-3.2605,-3.2617,-3.2643,-3.2615,-3.2645,-3.2646,-3.2637,-3.269,-3.2694,-3.2734,-3.2675,-3.2676,-3.2677,0,-3.2395,-3.2418,-3.2466,-3.249,-3.2501,-3.2524,-3.255,-3.2572,-3.2594,-3.26,-3.2619,-3.262,-3.2651,-3.2635,-3.2677,-3.2657,-3.2671,-3.2679,-3.2681,-3.2681,-3.2661,-3.269,-3.2747,-3.2752,-3.2686,-3.2686,-3.2685,0,-3.242,-3.2464,-3.2499,-3.2511,-3.254,-3.2556,-3.2569,-3.259,-3.2606,-3.2629,-3.264,-3.2667,-3.268,-3.2701,-3.271,-3.2697,-3.2751,-3.2736,-3.2756,-3.2756,-3.2765,-3.2763,-3.2822,-3.2778,-3.2778,-3.2778,-3.2778,0,-3.2464,-3.2493,-3.2511,-3.2532,-3.2565,-3.2574,-3.2607,-3.2619,-3.2638,-3.2661,-3.2664,-3.2686,-3.2698,-3.2721,-3.2729,-3.2762,-3.2769,-3.2774,-3.2775,-3.2772,-3.2771,-3.2779,-3.2775,-3.278,-3.2779,-3.2779,-3.2779,0,-3.2496,-3.251,-3.2547,-3.2573,-3.258,-3.2603,-3.2624,-3.2645,-3.2656,-3.2685,-3.2693,-3.271,-3.2738,-3.2751,-3.2785,-3.279,-3.2828,-3.2828,-3.282,-3.282,-3.2839,-3.2836,-3.2902,-3.291,-3.2863,-3.2864,-3.2864,0,-3.2522,-3.2544,-3.2572,-3.2588,-3.2602,-3.2628,-3.2645,-3.2656,-3.2674,-3.2702,-3.2719,-3.2747,-3.277,-3.2815,-3.2831,-3.2857,-3.2857,-3.2878,-3.2861,-3.2857,-3.2855,-3.2852,-3.2854,-3.288,-3.2881,-3.2881,-3.2882,0,-3.2565,-3.2571,-3.2595,-3.2622,-3.2643,-3.2665,-3.2686,-3.2699,-3.2714,-3.2734,-3.2763,-3.2781,-3.2817,-3.2845,-3.2873,-3.2886,-3.2886,-3.2888,-3.2893,-3.2889,-3.2883,-3.2884,-3.2826,-3.2885,-3.2885,-3.2885,-3.2884,-3.2884,-3.2593,-3.2613,-3.2636,-3.2663,-3.2681,-3.2701,-3.2722,-3.2736,-3.2761,-3.2791,-3.2797,-3.2828,-3.2851,-3.2888,-3.2903,-3.2927,-3.2922,-3.293,-3.2932,-3.2934,-3.2934,-3.2881,-3.2933,-3.2933,-3.2933,-3.2933,-3.2932,0,-3.2634,-3.265,-3.2675,-3.2705,-3.2727,-3.2727,-3.2751,-3.2769,-3.2796,-3.2818,-3.2841,-3.2875,-3.2903,-3.2921,-3.2949,-3.2965,-3.2966,-3.2972,-3.2969,-3.2972,-3.2938,-3.2929,-3.2971,-3.2971,-3.2971,-3.2971,-3.2971,-3.2971,-3.2658,-3.2691,-3.27,-3.2743,-3.2758,-3.2789,-3.2802,-3.2821,-3.2839,-3.2876,-3.2899,-3.2912,-3.2933,-3.2962,-3.2988,-3.2993,-3.3002,-3.3008,-3.3012,-3.2979,-3.2975,-3.2971,-3.2962,-3.3011,-3.3011,-3.3044,-3.3045,-3.3045]},{"header":{"parameterUnit":"m.s-1","parameterCategory":1,"la1":30.2991,"la2":30.254,"lo1":-89.0895,"lo2":-89.0444,"dy":0.0017,"dx":0.0017,"nx":28,"ny":28,"refTime":"2025-04-24T09:00:00:Z","depth":0,"parameterNumber":3,"parameterNumberName":"V-component_of_WINDS"},"data":[0,0,0,0,0,0,0,0,0,0,0,0,0,0,0,0,0,0,0,0,0,0,0,0,0,0,0,0,0,0,0,0,0,0,0,0,0,0,0,0,0,0,0,0,0,0,0,0,0,0,0,0,0,0,0,0,0,0,3.5332,3.5333,0,3.5428,3.5429,3.543,3.5455,3.5455,3.5454,3.5454,3.5547,3.555,3.5553,0,0,0,0,0,0,0,0,0,0,0,0,0,3.5166,3.5169,3.5332,3.5333,3.5334,3.5428,3.5429,3.5431,3.5455,3.5455,3.5454,3.5453,3.5546,3.555,3.5553,0,0,0,0,0,0,0,0,0,0,0,0,0,3.5248,3.517,3.5332,3.5358,3.5362,3.5428,3.5429,3.5431,3.5456,3.5455,3.5454,3.5453,3.5545,3.5549,3.5554,3.5599,0,0,3.5568,3.557,0,0,0,0,0,0,0,0,3.5243,3.5254,3.5353,3.5356,3.536,3.5429,3.5405,3.5487,3.5456,3.542,3.5454,3.5453,3.5508,3.5516,3.5535,3.5603,3.5607,3.5568,3.5571,3.5573,3.5574,0,0,0,0,0,0,0,3.5238,3.525,3.537,3.5354,3.5359,3.5364,3.5375,3.5421,3.5467,3.5423,3.5425,3.5436,3.551,3.5531,3.5538,3.5609,3.5568,3.5572,3.5575,3.5576,3.5721,3.5722,0,0,0,0,0,0,3.5228,3.5245,3.5367,3.5373,3.5299,3.5368,3.538,3.5408,3.5467,3.5475,3.5437,3.5437,3.5524,3.5532,3.5541,3.5601,3.5573,3.5577,3.558,3.572,3.5721,3.5723,0,0,0,0,0,0,3.5224,3.5239,3.5363,3.531,3.5326,3.5372,3.5403,3.541,3.5431,3.5478,3.5486,3.545,3.5523,3.5535,3.5585,3.5604,3.5579,3.5583,3.5719,3.5721,3.5722,3.5718,0,0,0,0,0,0,3.5219,3.5237,3.5256,3.531,3.5329,3.5407,3.5404,3.5413,3.544,3.5441,3.5492,3.55,3.5523,3.5579,3.559,3.561,3.5587,3.5717,3.572,3.5722,3.5717,3.5719,3.5722,0,0,0,0,0,3.5213,3.5249,3.5256,3.5271,3.5353,3.5408,3.5418,3.5446,3.5441,3.546,3.549,3.5498,3.56,3.5583,3.5597,3.5618,3.5716,3.5719,3.5721,3.5716,3.5719,3.5722,0,0,0,0,0,0,3.5193,3.5256,3.5265,3.532,3.5359,3.5412,3.5436,3.5448,3.5488,3.5487,3.5518,3.553,3.5579,3.5603,3.5584,3.5666,3.5658,3.5663,3.5649,3.5653,3.5655,3.5649,3.559,0,0,0,0,0,3.5196,3.5236,3.5288,3.5331,3.5351,3.539,3.5415,3.5433,3.5474,3.549,3.5524,3.5561,3.5602,3.5628,3.5668,3.572,3.5732,3.5741,3.5743,3.5745,3.575,3.5782,3.5787,3.5731,3.5731,3.5731,0,0,3.52,3.5239,3.5263,3.5328,3.5361,3.5402,3.5404,3.5446,3.5477,3.5496,3.5547,3.5573,3.5617,3.567,3.5694,3.5691,3.5768,3.5748,3.5749,3.5753,3.5785,3.579,3.5795,3.5733,3.5732,3.5732,0,0,3.523,3.5263,3.5304,3.5337,3.5386,3.5413,3.5422,3.5475,3.5494,3.5546,3.5562,3.5597,3.5666,3.5698,3.5723,3.5767,3.5777,3.5778,3.5792,3.5822,3.5827,3.5831,3.5849,3.5855,3.5782,3.5782,3.5782,0,3.5229,3.5293,3.5323,3.5366,3.5395,3.5416,3.5458,3.5487,3.5546,3.5566,3.5561,3.565,3.5681,3.5743,3.5754,3.5772,3.5785,3.5774,3.5824,3.5828,3.5833,3.585,3.5857,3.5783,3.5783,3.5783,3.5783,0,3.529,3.5334,3.5361,3.5421,3.5452,3.5494,3.553,3.5558,3.5573,3.56,3.5654,3.5692,3.5741,3.5756,3.577,3.582,3.5817,3.5818,3.5811,3.5838,3.5855,3.5862,3.5783,3.5783,3.5783,3.5783,0,0,3.5311,3.5388,3.5397,3.5426,3.5483,3.5517,3.5559,3.561,3.5634,3.5674,3.5712,3.577,3.5772,3.5801,3.5819,3.5845,3.5881,3.5843,3.5845,3.5851,3.594,3.5941,3.5949,3.5887,3.5888,3.5889,3.5937,0,3.5349,3.543,3.5459,3.5524,3.5566,3.5587,3.5624,3.5663,3.5689,3.5727,3.5755,3.5797,3.5795,3.5813,3.584,3.587,3.5899,3.5867,3.5922,3.5924,3.5914,3.5957,3.5958,3.6002,3.5944,3.5945,3.5946,0,3.5406,3.545,3.552,3.5574,3.5593,3.5626,3.5676,3.5712,3.5756,3.5773,3.5806,3.5823,3.5869,3.5857,3.5921,3.5899,3.5922,3.5941,3.5943,3.5951,3.5938,3.5969,3.6016,3.6024,3.5956,3.5955,3.5955,0,3.5417,3.5493,3.5546,3.5569,3.5633,3.5656,3.5683,3.5727,3.5756,3.5798,3.5818,3.5864,3.589,3.5925,3.5953,3.5942,3.6015,3.6005,3.6032,3.6031,3.6048,3.6047,3.6102,3.6059,3.6059,3.6058,3.6058,0,3.5459,3.5502,3.5553,3.5585,3.5634,3.5666,3.5713,3.5741,3.578,3.5819,3.5838,3.5873,3.5908,3.5947,3.5969,3.602,3.6031,3.6046,3.6052,3.6046,3.6045,3.6064,3.6063,3.606,3.606,3.6059,3.6059,0,3.548,3.5516,3.5576,3.5632,3.5647,3.5681,3.5728,3.5761,3.5788,3.5836,3.5849,3.5891,3.5939,3.5971,3.6031,3.6046,3.6102,3.6106,3.6088,3.6092,3.6117,3.6115,3.6189,3.6202,3.6147,3.6147,3.6148,0,3.5506,3.554,3.5601,3.5629,3.5658,3.5702,3.5733,3.5765,3.5796,3.5851,3.5877,3.5926,3.5968,3.6043,3.6079,3.6125,3.6132,3.6154,3.6139,3.6133,3.6136,3.6135,3.6139,3.6158,3.6158,3.6158,3.6159,0,3.5549,3.5566,3.561,3.5662,3.5698,3.574,3.5781,3.5802,3.5842,3.5876,3.5926,3.5959,3.6022,3.6072,3.6122,3.6149,3.6161,3.6163,3.6172,3.6168,3.6158,3.6167,3.6098,3.6162,3.6161,3.6161,3.6161,3.6161,3.5575,3.5608,3.5657,3.5706,3.5741,3.578,3.5814,3.5847,3.589,3.5946,3.5962,3.6015,3.606,3.6129,3.6157,3.6199,3.6196,3.6208,3.6212,3.6215,3.6217,3.6149,3.6207,3.6207,3.6207,3.6207,3.6207,0,3.5622,3.5655,3.57,3.5759,3.5798,3.5807,3.5854,3.5886,3.5933,3.5975,3.6016,3.6075,3.6124,3.6164,3.6214,3.624,3.6247,3.6252,3.6252,3.6258,3.6215,3.6204,3.6246,3.6246,3.6246,3.6246,3.6246,3.6246,3.5651,3.5707,3.573,3.5804,3.5836,3.5891,3.5917,3.5953,3.5986,3.6052,3.6094,3.612,3.6161,3.6215,3.626,3.627,3.6289,3.6294,3.6305,3.6265,3.6261,3.6257,3.6247,3.6297,3.6297,3.6346,3.6346,3.6346]}]]